Regional Weather Roundup
Issued by NWS Charleston, SC

Current Version | Previous Version | Text Only | Print | Product List | Glossary Off
Versions: 1 2 3 4 5 6 7 8 9 10 11 12 13 14 15 16 17 18 19 20 21 22 23 24 25 26 27 28 29 30 31 32 33 34 35 36 37 38 39 40 41 42 43 44 45 46 47 48 49 50
000 ASUS42 KCHS 270027 RWRCHS REGIONAL WEATHER ROUNDUP NATIONAL WEATHER SERVICE CHARLESTON SC 800 PM EDT FRI MAY 26 2017 NOTE: "FAIR" INDICATES FEW OR NO CLOUDS BELOW 12,000 FEET WITH NO SIGNIFICANT WEATHER AND/OR OBSTRUCTIONS TO VISIBILITY. NOT ALL STATIONS ARE QUALITY CONTROLLED. USE DATA WITH CAUTION... ESPECIALLY DEWPOINT OBSERVATIONS. SCZ027-030-031-034>040-042>050-270100- ...SOUTHEAST SOUTH CAROLINA... CITY SKY/WX TMP DP RH WIND PRES REMARKS N CHARLESTON PTCLDY 78 55 44 SW5 29.96R 6HR MIN TEMP: 78; 6HR MAX TEMP: 84; WATERFRONT PRK N/A 81 57 43 W6 29.94R JOHNS ISLAND FAIR 77 59 53 SW3 29.97R PINOPOLIS N/A N/A N/A N/A W8 29.88S MONCKS CORNER FAIR 72 59 64 CALM 29.96R SUMMERVILLE FAIR 73 59 60 CALM 29.97S BEAUFORT MCAS CLEAR 79 56 45 W5 29.97S 6HR MIN TEMP: 79; 6HR MAX TEMP: 85; BEAUFORT ARPT FAIR 77 55 47 SW3 29.97S HILTON HEAD IS CLEAR 79 55 44 CALM 29.98S WALTERBORO CLEAR 75 55 50 W3 29.98R ALLENDALE FAIR 79 59 50 CALM 29.96R ...SOUTHERN MIDLANDS AND PEE DEE... CITY SKY/WX TMP DP RH WIND PRES REMARKS GEORGETOWN FAIR 72 59 64 SW3 29.96S KINGSTREE FAIR 73 61 64 CALM 29.95R ORANGEBURG CLEAR 79 55 43 W6 29.96R 6HR MIN TEMP: 79; 6HR MAX TEMP: 84; BARNWELL FAIR 79 63 57 CALM 29.96F AIKEN FAIR 73 59 60 SW3 30.00R MANNING FAIR 73 63 68 SW12G20 29.95S COLUMBIA PTCLDY 80 54 40 W5 29.94S 6HR MIN TEMP: 80; 6HR MAX TEMP: 85; SUMTER CLEAR 78 56 46 SW5 29.92S 6HR MIN TEMP: 78; 6HR MAX TEMP: 84; FLORENCE CLEAR 79 55 43 W7 29.93R 6HR MIN TEMP: 79; 6HR MAX TEMP: 83; MYRTLE BEACH CLEAR 79 57 47 W7 29.95R N MYRTLE BEACH CLEAR 78 59 51 CALM 29.93R 6HR MIN TEMP: 78; 6HR MAX TEMP: 83; $$ GAZ063-065-086>088-099>101-113>116-118-119-134>141-150-270100- ...SOUTHEAST GEORGIA... CITY SKY/WX TMP DP RH WIND PRES REMARKS SAVANNAH ARPT MOCLDY 80 54 40 W6 29.98S 6HR MIN TEMP: 80; 6HR MAX TEMP: 88; HUNTER AAF CLEAR 80 62 55 CALM 29.96R 6HR MIN TEMP: 80; 6HR MAX TEMP: 86; FORT STEWART CLEAR 81 55 40 SW3 29.96S 6HR MIN TEMP: 81; 6HR MAX TEMP: 85; STATESBORO CLEAR 79 61 54 CALM 29.98S SYLVANIA CLEAR 76 65 67 CALM 29.99S CLAXTON FAIR 74 68 82 CALM 29.98S ...CSRA...CENTRAL AND FAR SOUTHEAST GEORGIA... CITY SKY/WX TMP DP RH WIND PRES REMARKS THOMSON CLEAR 74 63 66 NW5 30.01S AUGUSTA-BUSH CLEAR 82 59 45 SW5 29.95S 6HR MIN TEMP: 82; 6HR MAX TEMP: 87; AUGUSTA-DANIEL CLEAR 82 56 40 VRB3 29.97S SWAINSBORO FAIR 79 61 53 CALM 29.99S VIDALIA CLEAR 81 61 50 W5 29.99F EASTMAN FAIR 80 48 32 SW3 30.02S HAZLEHURST FAIR 78 63 59 CALM 29.99S ALMA CLEAR 83 56 39 W3 30.00S 6HR MIN TEMP: 82; 6HR MAX TEMP: 87; WAYCROSS CLEAR 82 61 49 CALM 30.00S JESUP FAIR 77 55 47 CALM 30.00S BAXLEY FAIR 81 63 54 CALM 29.99F BRUNSWICK CLEAR 77 61 57 CALM 30.00S SAINT SIMONS CLEAR 78 64 61 S6 30.00R 6HR MIN TEMP: 78; 6HR MAX TEMP: 86; $$ SCZ027-028-034-036>038-045-046-048>050-GAZ119-141-270100- ...LAKE AND SUPPLEMENTAL COASTAL OBSERVATIONS... STATION/POSITION TIME TEMP WIND PRES WAVE SWELL AIR SEA DIR/SP/G HT/PER HT/PER/DIR (UTC) (F) (DEG/KT/KT) (MB) (FT/S) (FT/S/D) WINYAH BAY 2330 80 270/ 6 1014.0R LAKE MURRAY 0020 77 240/ 3/ 4 1013.2S ACE BASIN NERRS 2345 80 CALM 1015.0S FORT PULASKI 0000 81 280/ 6/ 8 1015.5 SAPELO ISLAND 0000 82 CALM 1016.0 $$ ANZ835-935-AMZ111-154-330-350-352-354-370-450-454-472-270100- ...C-MAN AND BUOY OBSERVATIONS... STATION/POSITION TIME TEMP WIND PRES WAVE SWELL AIR SEA DIR/SP/G HT/PER HT/PER/DIR (UTC) (F) (DEG/KT/KT) (MB) (FT/S) (FT/S/D) BUOY 41004 0010 74 74 230/ 16/ 17 1014.5 BUOY 41008 2350 77 78 200/ 12/ 12 1015.5R 2/ 8 2/110/ 8 FOLLY BEACH CMAN 0000 76 220/ 10/ 14 1015.3R CAPERS NEARSHORE 0008 81 76 230/ 14/ 17 1014.1R FRIPP NEARSHORE 0008 78 77 220/ 12/ 16 1014.5S STATION/POSITION TIME TEMP WIND PRES WAVE SWELL AIR SEA DIR/SP/G HT/PER HT/PER/DIR (UTC) (F) (DEG/KT/KT) (MB) (FT/S) (FT/S/D) 5E ST. MARYS GA 0000 78 N/A 2/ 7 FRYING PAN BUOY 0010 74 75 230/ 17/ 21 1013.9 BUOY 41025 2350 76 80 250/ 17/ 21 1012.2R 6/ 7 CAPE LOOKOUT NC 0000 74 230/ 11/ 15 1012.4R BUOY 41002 2350 77 77 240/ 12/ 16 1015.6R 5/ 7 3/190/ 7 BUOY 41010 0010 78 79 290/ 8/ 10 1017.1 ST AUGUSTINE FL 0000 75 78 150/ 11/ 11 1017.5R $$

USA.gov is the U.S. government's official web portal to all federal, state and local government web resources and services.